[[{"header":{"parameterUnit":"m.s-1","parameterCategory":1,"la1":30.2991,"la2":30.254,"lo1":-89.0895,"lo2":-89.0444,"dy":0.0017,"dx":0.0017,"nx":28,"ny":28,"refTime":"2023-09-04T21:00:00:Z","depth":0,"parameterNumber":2,"parameterNumberName":"U-component_of_WINDS"},"data":[0,0,0,0,0,0,0,0,0,0,0,0,0,0,0,0,0,0,0,0,0,0,0,0,0,0,0,0,0,0,0,0,0,0,0,0,0,0,0,0,0,0,0,0,0,0,0,0,0,0,0,0,0,0,0,0,0,0,-0.3045,-0.3047,0,-0.3203,-0.3204,-0.3206,-0.3216,-0.3214,-0.3212,-0.321,-0.3381,-0.3387,-0.3393,0,0,0,0,0,0,0,0,0,0,0,0,0,-0.2761,-0.2766,-0.3045,-0.3047,-0.3049,-0.3202,-0.3204,-0.3207,-0.3216,-0.3214,-0.3212,-0.321,-0.3379,-0.3386,-0.3394,0,0,0,0,0,0,0,0,0,0,0,0,0,-0.2898,-0.2768,-0.3045,-0.3072,-0.3076,-0.3202,-0.3205,-0.3207,-0.3216,-0.3214,-0.3211,-0.3208,-0.3376,-0.3386,-0.3395,-0.3507,0,0,-0.3423,-0.3427,0,0,0,0,0,0,0,0,-0.289,-0.2909,-0.3066,-0.307,-0.3075,-0.3186,-0.3167,-0.3308,-0.3217,-0.3163,-0.321,-0.3207,-0.3319,-0.3333,-0.3369,-0.3515,-0.3523,-0.3424,-0.343,-0.3434,-0.3437,0,0,0,0,0,0,0,-0.2881,-0.2902,-0.3108,-0.3068,-0.3074,-0.3079,-0.3096,-0.3194,-0.3255,-0.3168,-0.3169,-0.3187,-0.3321,-0.336,-0.3373,-0.3525,-0.3424,-0.3432,-0.3438,-0.3442,-0.3774,-0.3777,0,0,0,0,0,0,-0.2865,-0.2894,-0.3103,-0.3112,-0.2974,-0.3086,-0.3105,-0.3154,-0.3254,-0.3266,-0.3189,-0.3187,-0.3345,-0.3362,-0.3379,-0.3518,-0.3434,-0.3443,-0.3448,-0.3771,-0.3774,-0.3778,0,0,0,0,0,0,-0.2859,-0.2883,-0.3096,-0.3003,-0.3031,-0.3094,-0.3149,-0.3158,-0.3197,-0.327,-0.3282,-0.3217,-0.3344,-0.3366,-0.3475,-0.3524,-0.3447,-0.3455,-0.3767,-0.3772,-0.3776,-0.3797,0,0,0,0,0,0,-0.285,-0.2881,-0.2922,-0.3004,-0.3036,-0.3187,-0.3152,-0.3163,-0.3212,-0.321,-0.3299,-0.3311,-0.3343,-0.3461,-0.3484,-0.3536,-0.3463,-0.3763,-0.3769,-0.3775,-0.3792,-0.3802,-0.381,0,0,0,0,0,-0.284,-0.2924,-0.2924,-0.2949,-0.3088,-0.319,-0.3208,-0.3241,-0.3216,-0.3259,-0.3306,-0.3308,-0.3515,-0.3472,-0.3498,-0.3554,-0.376,-0.3767,-0.3774,-0.3788,-0.38,-0.381,0,0,0,0,0,0,-0.2849,-0.2935,-0.2937,-0.3048,-0.3111,-0.3191,-0.3247,-0.3252,-0.3326,-0.3322,-0.3362,-0.3382,-0.349,-0.3533,-0.3484,-0.3669,-0.3635,-0.3648,-0.3637,-0.3648,-0.3657,-0.3645,-0.347,0,0,0,0,0,-0.2863,-0.2935,-0.3008,-0.31,-0.3131,-0.3183,-0.3229,-0.3248,-0.3316,-0.3344,-0.3399,-0.3468,-0.3548,-0.3601,-0.3679,-0.3798,-0.3819,-0.3849,-0.3858,-0.3865,-0.3876,-0.3945,-0.3959,-0.3802,-0.3802,-0.3801,0,0,-0.2895,-0.295,-0.2994,-0.3103,-0.3154,-0.3231,-0.3206,-0.3288,-0.3346,-0.3358,-0.3463,-0.3506,-0.3586,-0.3701,-0.3754,-0.374,-0.3924,-0.3874,-0.3879,-0.3887,-0.3954,-0.3968,-0.3982,-0.3807,-0.3806,-0.3805,0,0,-0.2991,-0.304,-0.3122,-0.3173,-0.3249,-0.3284,-0.3303,-0.3383,-0.3411,-0.3517,-0.3527,-0.3599,-0.3736,-0.3793,-0.3839,-0.3958,-0.3963,-0.3982,-0.403,-0.4096,-0.4108,-0.412,-0.4163,-0.4178,-0.3993,-0.3993,-0.3993,0,-0.3021,-0.3134,-0.3164,-0.3246,-0.3294,-0.3305,-0.339,-0.3439,-0.3539,-0.3574,-0.3555,-0.3728,-0.3782,-0.3911,-0.394,-0.3977,-0.4003,-0.3973,-0.4103,-0.4115,-0.4126,-0.4169,-0.4185,-0.3995,-0.3995,-0.3994,-0.3994,0,-0.3169,-0.3247,-0.3305,-0.3397,-0.3452,-0.3536,-0.3581,-0.3633,-0.3648,-0.3685,-0.3795,-0.386,-0.3952,-0.3984,-0.4,-0.4116,-0.4105,-0.4094,-0.4062,-0.4142,-0.4183,-0.4199,-0.3997,-0.3997,-0.3996,-0.3996,0,0,-0.3276,-0.3382,-0.3403,-0.3446,-0.3531,-0.3594,-0.3679,-0.3766,-0.3811,-0.388,-0.3954,-0.407,-0.4061,-0.4114,-0.4137,-0.4195,-0.4286,-0.4178,-0.418,-0.4197,-0.442,-0.4428,-0.4446,-0.429,-0.4293,-0.4295,-0.4414,0,-0.3382,-0.353,-0.3559,-0.3689,-0.3763,-0.3774,-0.3849,-0.3911,-0.3948,-0.4019,-0.4062,-0.4143,-0.4124,-0.4156,-0.4214,-0.4262,-0.4332,-0.4254,-0.4362,-0.4365,-0.4342,-0.4467,-0.4476,-0.4584,-0.443,-0.4432,-0.4434,0,-0.3527,-0.3596,-0.3732,-0.3808,-0.384,-0.3906,-0.3988,-0.4055,-0.4127,-0.415,-0.4209,-0.4226,-0.4318,-0.428,-0.4408,-0.4355,-0.4401,-0.4432,-0.4437,-0.4449,-0.4405,-0.4484,-0.462,-0.4636,-0.4459,-0.4457,-0.4456,0,-0.3592,-0.372,-0.3818,-0.3854,-0.3945,-0.3991,-0.4032,-0.41,-0.4151,-0.4224,-0.4258,-0.4342,-0.4389,-0.4455,-0.4496,-0.4464,-0.4622,-0.4587,-0.4647,-0.4646,-0.4681,-0.4678,-0.4827,-0.4708,-0.4708,-0.4707,-0.4707,0,-0.3709,-0.3793,-0.3848,-0.3909,-0.4003,-0.4037,-0.4131,-0.4172,-0.4233,-0.4304,-0.432,-0.4387,-0.4435,-0.451,-0.4543,-0.4646,-0.4666,-0.469,-0.4698,-0.4689,-0.4687,-0.4721,-0.4715,-0.4712,-0.4711,-0.471,-0.4709,0,-0.3799,-0.384,-0.3947,-0.4024,-0.4045,-0.4112,-0.4179,-0.424,-0.4276,-0.4366,-0.439,-0.4449,-0.4538,-0.4584,-0.4696,-0.4718,-0.4834,-0.4837,-0.4809,-0.4812,-0.487,-0.4864,-0.5047,-0.5073,-0.4936,-0.4937,-0.4938,0,-0.3872,-0.3935,-0.4018,-0.4065,-0.4106,-0.4182,-0.4233,-0.427,-0.4323,-0.441,-0.4461,-0.455,-0.4623,-0.4765,-0.4821,-0.4907,-0.4913,-0.4971,-0.4926,-0.4916,-0.4916,-0.4912,-0.4919,-0.4979,-0.4981,-0.4982,-0.4982,0,-0.3996,-0.4013,-0.4084,-0.4163,-0.4223,-0.4288,-0.4352,-0.4391,-0.4438,-0.4498,-0.4587,-0.4644,-0.4756,-0.4846,-0.4936,-0.4982,-0.4992,-0.4996,-0.5014,-0.5007,-0.4988,-0.5001,-0.4832,-0.4992,-0.4991,-0.499,-0.499,-0.4989,-0.4081,-0.4138,-0.4205,-0.4285,-0.4336,-0.4396,-0.4457,-0.4501,-0.4574,-0.4667,-0.4685,-0.478,-0.4853,-0.4974,-0.5023,-0.51,-0.5088,-0.5115,-0.5122,-0.5129,-0.5132,-0.4974,-0.5117,-0.5117,-0.5116,-0.5116,-0.5116,0,-0.4207,-0.4251,-0.4323,-0.4411,-0.4474,-0.4474,-0.4545,-0.4599,-0.4682,-0.4747,-0.4817,-0.4921,-0.5008,-0.507,-0.5159,-0.5209,-0.5216,-0.5231,-0.5229,-0.524,-0.5136,-0.5112,-0.5224,-0.5224,-0.5224,-0.5224,-0.5224,-0.5224,-0.4281,-0.4378,-0.4403,-0.4528,-0.4571,-0.4662,-0.4703,-0.4759,-0.4811,-0.4925,-0.4996,-0.5034,-0.5099,-0.5193,-0.5274,-0.529,-0.5323,-0.5338,-0.5355,-0.5258,-0.5247,-0.5236,-0.5213,-0.5345,-0.5345,-0.5452,-0.5453,-0.5454]},{"header":{"parameterUnit":"m.s-1","parameterCategory":1,"la1":30.2991,"la2":30.254,"lo1":-89.0895,"lo2":-89.0444,"dy":0.0017,"dx":0.0017,"nx":28,"ny":28,"refTime":"2023-09-04T21:00:00:Z","depth":0,"parameterNumber":3,"parameterNumberName":"V-component_of_WINDS"},"data":[0,0,0,0,0,0,0,0,0,0,0,0,0,0,0,0,0,0,0,0,0,0,0,0,0,0,0,0,0,0,0,0,0,0,0,0,0,0,0,0,0,0,0,0,0,0,0,0,0,0,0,0,0,0,0,0,0,0,-1.1647,-1.1647,0,-1.1695,-1.1696,-1.1697,-1.1641,-1.1639,-1.1637,-1.1635,-1.1684,-1.1687,-1.169,0,0,0,0,0,0,0,0,0,0,0,0,0,-1.1507,-1.151,-1.1647,-1.1648,-1.1648,-1.1695,-1.1696,-1.1697,-1.1641,-1.1639,-1.1636,-1.1634,-1.1683,-1.1687,-1.1691,0,0,0,0,0,0,0,0,0,0,0,0,0,-1.1563,-1.1511,-1.1647,-1.1626,-1.1625,-1.1695,-1.1696,-1.1697,-1.1642,-1.1639,-1.1635,-1.1633,-1.1682,-1.1686,-1.1691,-1.1784,0,0,-1.1706,-1.1708,0,0,0,0,0,0,0,0,-1.156,-1.1568,-1.1629,-1.1628,-1.1626,-1.1659,-1.1665,-1.1726,-1.1643,-1.1635,-1.1635,-1.1631,-1.1678,-1.1683,-1.1699,-1.1787,-1.1789,-1.1707,-1.171,-1.1712,-1.1713,0,0,0,0,0,0,0,-1.1556,-1.1566,-1.1666,-1.163,-1.1628,-1.1615,-1.1619,-1.1676,-1.1674,-1.1636,-1.1632,-1.1638,-1.1677,-1.1695,-1.17,-1.179,-1.1707,-1.1711,-1.1714,-1.1716,-1.1959,-1.1962,0,0,0,0,0,0,-1.1555,-1.1563,-1.1665,-1.1668,-1.1585,-1.162,-1.1625,-1.1652,-1.1673,-1.1673,-1.1641,-1.1635,-1.1688,-1.1694,-1.1701,-1.1815,-1.1712,-1.1716,-1.1719,-1.1955,-1.196,-1.1963,0,0,0,0,0,0,-1.1552,-1.1564,-1.1663,-1.1614,-1.1626,-1.1626,-1.1656,-1.1654,-1.1672,-1.1677,-1.1676,-1.1659,-1.1686,-1.1695,-1.1765,-1.1815,-1.1719,-1.1723,-1.1951,-1.1957,-1.1961,-1.204,0,0,0,0,0,0,-1.1548,-1.1563,-1.1599,-1.1615,-1.1629,-1.1725,-1.1659,-1.1657,-1.168,-1.1674,-1.1694,-1.1694,-1.1684,-1.1758,-1.177,-1.182,-1.1727,-1.1947,-1.1954,-1.196,-1.2033,-1.2047,-1.206,0,0,0,0,0,-1.1543,-1.1618,-1.1601,-1.1613,-1.1672,-1.1728,-1.1736,-1.1722,-1.1685,-1.1721,-1.1724,-1.1694,-1.1807,-1.1766,-1.1778,-1.1831,-1.1943,-1.1952,-1.1959,-1.2027,-1.2045,-1.2059,0,0,0,0,0,0,-1.1607,-1.162,-1.1601,-1.1683,-1.1705,-1.1719,-1.1764,-1.1741,-1.1774,-1.1766,-1.1747,-1.1752,-1.1828,-1.1836,-1.1789,-1.1924,-1.1869,-1.188,-1.1916,-1.1933,-1.1946,-1.1944,-1.1731,0,0,0,0,0,-1.163,-1.1674,-1.1683,-1.1755,-1.1767,-1.1764,-1.1787,-1.1775,-1.1797,-1.1806,-1.1814,-1.1837,-1.1878,-1.1905,-1.1943,-1.2033,-1.2038,-1.2076,-1.2089,-1.21,-1.2111,-1.2162,-1.2179,-1.1989,-1.1989,-1.1989,0,0,-1.168,-1.1692,-1.1721,-1.1769,-1.1784,-1.1831,-1.1772,-1.1823,-1.1859,-1.1814,-1.1882,-1.1889,-1.1913,-1.1994,-1.203,-1.2003,-1.2164,-1.211,-1.2119,-1.2123,-1.2172,-1.219,-1.2206,-1.1995,-1.1994,-1.1993,0,0,-1.1794,-1.1807,-1.187,-1.1887,-1.1912,-1.1909,-1.1924,-1.1942,-1.1945,-1.2013,-1.1981,-1.2022,-1.2092,-1.2112,-1.2131,-1.2254,-1.2229,-1.2267,-1.2337,-1.2387,-1.2403,-1.2416,-1.2463,-1.248,-1.2276,-1.2277,-1.2277,0,-1.1853,-1.1923,-1.1905,-1.196,-1.1983,-1.1945,-1.2009,-1.2026,-1.2062,-1.2079,-1.2048,-1.2137,-1.215,-1.2237,-1.2267,-1.2283,-1.2301,-1.2266,-1.2402,-1.2415,-1.2427,-1.2472,-1.2489,-1.2281,-1.2281,-1.228,-1.228,0,-1.1995,-1.2044,-1.2091,-1.2128,-1.2156,-1.2215,-1.2208,-1.2238,-1.2223,-1.2224,-1.2295,-1.2309,-1.235,-1.2369,-1.2355,-1.2455,-1.2438,-1.2404,-1.235,-1.245,-1.2492,-1.2509,-1.2288,-1.2286,-1.2285,-1.2284,0,0,-1.2152,-1.2179,-1.2198,-1.2215,-1.224,-1.2277,-1.2335,-1.2376,-1.2404,-1.2429,-1.2479,-1.254,-1.251,-1.2532,-1.2519,-1.2562,-1.2663,-1.2524,-1.2524,-1.2552,-1.2778,-1.2806,-1.2826,-1.2645,-1.2648,-1.2651,-1.2777,0,-1.227,-1.2371,-1.2358,-1.2456,-1.2502,-1.2467,-1.2518,-1.2539,-1.2541,-1.2581,-1.2583,-1.2628,-1.2583,-1.2596,-1.2638,-1.2642,-1.2709,-1.2632,-1.2693,-1.2696,-1.2692,-1.2847,-1.2876,-1.2995,-1.2793,-1.2796,-1.2798,0,-1.2421,-1.2454,-1.2557,-1.2577,-1.2596,-1.2642,-1.268,-1.2717,-1.2741,-1.274,-1.2765,-1.2745,-1.2804,-1.2746,-1.2829,-1.2777,-1.2801,-1.2807,-1.2811,-1.2819,-1.2755,-1.2862,-1.3032,-1.3052,-1.2823,-1.2821,-1.2819,0,-1.253,-1.2599,-1.2671,-1.2686,-1.271,-1.2744,-1.2755,-1.2776,-1.2802,-1.2835,-1.2852,-1.289,-1.2913,-1.2943,-1.2935,-1.2893,-1.302,-1.2961,-1.3023,-1.3024,-1.3054,-1.3053,-1.3234,-1.3064,-1.3063,-1.3063,-1.3063,0,-1.2665,-1.273,-1.2721,-1.2765,-1.2837,-1.2821,-1.2893,-1.29,-1.2919,-1.2965,-1.2935,-1.2978,-1.2963,-1.3005,-1.2998,-1.307,-1.3079,-1.3081,-1.3079,-1.3086,-1.3086,-1.3104,-1.3096,-1.3068,-1.3067,-1.3066,-1.3065,0,-1.28,-1.2796,-1.2872,-1.2889,-1.2894,-1.2948,-1.2962,-1.3004,-1.3004,-1.3062,-1.3075,-1.3075,-1.3124,-1.3118,-1.3172,-1.3167,-1.3257,-1.3243,-1.325,-1.3248,-1.3312,-1.3308,-1.3513,-1.3541,-1.335,-1.3351,-1.3353,0,-1.2888,-1.2938,-1.2961,-1.2989,-1.3004,-1.305,-1.3077,-1.3063,-1.3093,-1.3124,-1.3163,-1.321,-1.3247,-1.3327,-1.3332,-1.3374,-1.3363,-1.3432,-1.3369,-1.3375,-1.3368,-1.3367,-1.3373,-1.3445,-1.3448,-1.3449,-1.3451,0,-1.3046,-1.3042,-1.3082,-1.3123,-1.3157,-1.3188,-1.3215,-1.3241,-1.3229,-1.3264,-1.3315,-1.3343,-1.3399,-1.3447,-1.3487,-1.3498,-1.3475,-1.347,-1.3487,-1.3497,-1.35,-1.3503,-1.3288,-1.3466,-1.3465,-1.3463,-1.3463,-1.3462,-1.3163,-1.3207,-1.323,-1.3277,-1.3297,-1.3324,-1.3365,-1.3371,-1.3413,-1.3458,-1.3447,-1.3505,-1.3528,-1.3579,-1.3596,-1.3641,-1.3616,-1.364,-1.3647,-1.3654,-1.3663,-1.349,-1.3647,-1.3647,-1.3647,-1.3646,-1.3646,0,-1.3323,-1.3336,-1.3379,-1.342,-1.3457,-1.343,-1.346,-1.3493,-1.3545,-1.3569,-1.3606,-1.3665,-1.3711,-1.372,-1.3765,-1.3799,-1.379,-1.3812,-1.3811,-1.3815,-1.3681,-1.3664,-1.382,-1.3819,-1.3819,-1.3819,-1.3819,-1.3819,-1.341,-1.3484,-1.3483,-1.3566,-1.3579,-1.3636,-1.3656,-1.3682,-1.3702,-1.3769,-1.3808,-1.3813,-1.3832,-1.3878,-1.3919,-1.3921,-1.394,-1.3968,-1.3965,-1.3841,-1.3824,-1.3807,-1.3791,-1.3971,-1.3971,-1.4096,-1.4097,-1.4098]}]]